Location: Canyam�s
(41.5996°N, 2.4450°E)
Time: 02:58:56
(UTC+00:00)

Hubble Space Telescope - Pass Details

Date: 13 August 2020
Orbit: 536 x 540 km, 28.5° (Epoch: 22 September)

Event Time Altitude Azimuth Distance (km) Brightness Sun altitude
Exits shadow 03:42:56 11° 189° (S) 1,723 2.9 -13.2°
Maximum altitude 03:44:04 12° 173° (S) 1,660 3.0 -13.0°
Drops below altitude 10° 03:45:38 10° 150° (SSE) 1,781 3.4 -12.8°
Sets 03:49:12 0° 119° (ESE) 2,673 4.7 -12.2°
